Location: Lecco
(45.8566°N, 9.3977°E)
Time: 14:26:12
(UTC+02:00)

S-56A Canister/Altair - Pass Details

Date: 30 July 2019
Orbit: 633 x 2499 km, 38.9° (Epoch: 20 August)

Event Time Altitude Azimuth Distance (km) Brightness Sun altitude
Rises 04:55:44 0° 219° (SW) 3,945 - -10.4°
Exits shadow 04:58:18 10° 210° (SSW) 3,226 10.1 -10.0°
Reaches altitude 10° 04:58:21 10° 210° (SSW) 3,213 10.1 -10.0°
Maximum altitude 05:05:44 37° 147° (SSE) 2,342 9.9 -9.0°
Drops below altitude 10° 05:16:12 10° 87° (E) 4,572 12.4 -7.6°
Sets 05:20:42 0° 80° (E) 5,814 13.3 -7.0°
